FW8819 Weather Reports


time (UTC)temp
C
wind
direction
speed
KPH
gust
KPH
rain 1hr
cm
rain 24hr
cm
rain mn
cm
humidity
%
barometer
mb
20260505195015 1 56 9.7 17.7 0.03 0.61 0.33 93 1013.6
20260505194533 1 39 8.0 17.7 0.03 0.61 0.33 93 1013.7
20260505194018 1 19 8.0 14.5 0.03 0.61 0.33 93 1013.7
20260505193513 1 1 8.0 12.9 0.03 0.61 0.33 93 1013.7
20260505193044 1 13 8.0 14.5 0.03 0.61 0.33 93 1013.8
20260505192516 1 40 9.7 14.5 0.03 0.61 0.33 93 1013.8
20260505192015 1 51 9.7 14.5 0.00 0.58 0.30 93 1013.8
20260505191541 1 77 9.7 16.1 0.00 0.58 0.30 93 1013.9
20260505191018 1 52 9.7 16.1 0.00 0.58 0.30 93 1014.0
20260505190514 1 64 8.0 16.1 0.00 0.58 0.30 93 1014.0
20260505190039 1 66 9.7 16.1 0.00 0.58 0.30 93 1014.0
20260505185520 1 43 11.3 17.7 0.03 0.58 0.30 93 1014.3
20260505185013 1 82 9.7 17.7 0.03 0.58 0.30 93 1014.2
20260505184534 1 60 9.7 16.1 0.03 0.58 0.30 93 1014.3
20260505184014 1 29 11.3 16.1 0.03 0.58 0.30 93 1014.2
20260505183514 1 35 8.0 16.1 0.03 0.58 0.30 93 1014.2
20260505183045 1 51 9.7 17.7 0.03 0.58 0.30 93 1014.3
20260505182513 1 77 9.7 17.7 0.03 0.58 0.30 93 1014.3
20260505182016 1 41 11.3 17.7 0.03 0.58 0.30 93 1014.3
20260505181533 1 41 6.4 12.9 0.03 0.58 0.30 93 1014.5
20260505181021 1 90 6.4 11.3 0.03 0.58 0.30 93 1014.5
20260505180514 1 84 6.4 14.5 0.03 0.58 0.30 93 1014.6
20260505180037 1 82 9.7 16.1 0.03 0.58 0.30 93 1014.7
20260505175515 1 58 9.7 16.1 0.00 0.56 0.28 93 1014.8
20260505175020 1 75 6.4 17.7 0.00 0.56 0.28 93 1014.8
20260505174540 1 63 9.7 17.7 0.00 0.56 0.28 93 1014.8
20260505174016 1 58 9.7 17.7 0.00 0.56 0.28 93 1014.9
20260505173513 1 79 9.7 16.1 0.00 0.56 0.28 93 1014.8
20260505173054 1 78 9.7 16.1 0.00 0.56 0.28 93 1014.9
20260505172513 1 82 9.7 16.1 0.00 0.56 0.28 94 1014.9
20260505172025 1 90 9.7 16.1 0.03 0.56 0.28 94 1014.9
20260505171539 1 89 6.4 16.1 0.03 0.56 0.28 94 1015.0
20260505171016 1 77 9.7 16.1 0.03 0.56 0.28 94 1014.9
20260505170519 1 79 9.7 16.1 0.03 0.56 0.28 94 1014.8
20260505170034 0 73 9.7 14.5 0.03 0.56 0.28 94 1015.0
20260505165514 1 52 8.0 12.9 0.03 0.56 0.28 94 1015.0
20260505165014 1 44 6.4 12.9 0.03 0.56 0.28 94 1015.1
20260505164537 1 54 8.0 11.3 0.03 0.56 0.28 94 1015.2
20260505164013 0 49 4.8 12.9 0.03 0.56 0.28 94 1015.3
20260505163516 0 40 4.8 12.9 0.03 0.56 0.28 94 1015.4
20260505163035 1 2 6.4 14.5 0.03 0.56 0.28 94 1015.4
20260505162514 1 354 6.4 14.5 0.03 0.56 0.28 94 1015.4
20260505162016 1 357 3.2 12.9 0.00 0.53 0.25 94 1015.3
20260505161532 1 359 6.4 12.9 0.00 0.53 0.25 94 1015.3
20260505161013 0 3 6.4 14.5 0.03 0.53 0.25 94 1015.4
20260505160514 0 349 8.0 14.5 0.03 0.53 0.25 94 1015.4
20260505153034 0 17 11.3 16.1 0.03 0.53 0.25 94 1015.4
20260505152516 0 11 9.7 19.3 0.03 0.53 0.25 94 1015.5
20260505152020 0 6 9.7 20.9 0.03 0.53 0.25 93 1015.6
20260505151533 0 10 11.3 20.9 0.00 0.51 0.23 93 1015.6
20260505151015 0 8 11.3 20.9 0.03 0.51 0.23 93 1015.5
20260505150522 0 6 12.9 19.3 0.03 0.51 0.23 94 1015.5
20260505140522 0 2 9.7 19.3 0.00 0.48 0.20 93 1015.8
20260505125013 0 355 16.1 35.4 0.05 0.48 0.20 93 1014.4
20260505124533 0 10 24.1 35.4 0.05 0.48 0.20 93 1014.2
20260505124016 0 349 17.7 30.6 0.05 0.48 0.20 93 1014.1
20260505123516 0 351 16.1 30.6 0.08 0.48 0.20 93 1014.1
20260505123046 1 325 19.3 32.2 0.08 0.46 0.18 93 1014.0
20260505122518 1 34 22.5 32.2 0.10 0.46 0.18 93 1014.0
20260505122014 1 344 20.9 30.6 0.13 0.46 0.18 93 1013.9
20260505121535 1 355 20.9 30.6 0.13 0.46 0.18 93 1014.0
20260505121017 1 328 20.9 30.6 0.13 0.46 0.18 93 1014.0
20260505120515 1 8 19.3 30.6 0.15 0.46 0.18 92 1014.0
20260505120046 1 6 19.3 30.6 0.13 0.43 0.15 92 1014.0
20260505115513 1 4 20.9 32.2 0.13 0.43 0.15 93 1014.0
20260505115014 2 5 16.1 32.2 0.13 0.43 0.15 92 1013.9
20260505114545 2 349 20.9 32.2 0.13 0.43 0.15 93 1013.8
20260505114016 2 326 17.7 32.2 0.13 0.43 0.15 92 1013.8
20260505113513 2 345 20.9 33.8 0.10 0.41 0.13 92 1013.8
20260505113031 2 23 22.5 33.8 0.08 0.38 0.10 92 1013.7
20260505112515 2 347 17.7 30.6 0.05 0.36 0.08 92 1013.6
20260505112014 3 354 17.7 27.4 0.03 0.33 0.05 92 1013.6
20260505111533 3 12 14.5 25.7 0.03 0.33 0.05 92 1013.6
20260505111014 3 22 14.5 25.7 0.03 0.33 0.05 92 1013.5
20260505110515 3 352 17.7 27.4 0.00 0.30 0.03 92 1013.4
20260505102017 6 344 6.4 20.9 0.00 0.30 0.03 92 1012.6
20260505101538 6 8 3.2 6.4 0.00 0.30 0.03 91 1012.1
20260505101015 6 344 1.6 8.0 0.00 0.30 0.03 91 1012.3
20260505100516 6 350 1.6 11.3 0.00 0.30 0.03 91 1012.1
20260505100034 6 340 1.6 12.9 0.00 0.30 0.03 91 1012.2
20260505095514 6 360 6.4 16.1 0.00 0.30 0.03 90 1012.2
20260505095017 6 343 9.7 22.5 0.00 0.30 0.03 90 1012.3
20260505094534 6 354 8.0 22.5 0.00 0.30 0.03 90 1012.3
20260505094015 6 350 11.3 20.9 0.00 0.30 0.03 89 1012.2
20260505093514 6 44 12.9 17.7 0.00 0.30 0.03 89 1011.8
20260505093040 6 51 11.3 17.7 0.00 0.30 0.03 89 1011.9
20260505092515 6 73 11.3 17.7 0.00 0.30 0.03 89 1011.7
20260505092015 6 91 6.4 11.3 0.00 0.30 0.03 89 1012.0
20260505091540 6 101 4.8 11.3 0.00 0.30 0.03 88 1012.2
20260505091016 6 83 6.4 11.3 0.00 0.30 0.03 88 1012.1
20260505090514 6 113 6.4 11.3 0.00 0.30 0.03 88 1012.1
20260505090045 6 100 6.4 11.3 0.00 0.30 0.03 88 1012.1
20260505085515 6 82 6.4 11.3 0.00 0.30 0.03 87 1012.1
20260505085016 6 99 4.8 11.3 0.00 0.30 0.03 87 1012.0
20260505084532 6 98 6.4 12.9 0.00 0.30 0.03 87 1012.0
20260505084014 6 117 6.4 14.5 0.00 0.30 0.03 87 1011.9
20260505083517 6 105 8.0 19.3 0.00 0.30 0.03 87 1011.9
20260505083034 6 145 12.9 19.3 0.00 0.30 0.03 87 1011.8
20260505082517 6 159 9.7 14.5 0.00 0.30 0.03 88 1012.0
20260505082017 6 132 6.4 12.9 0.00 0.30 0.03 88 1012.1
20260505081542 6 96 4.8 9.7 0.00 0.30 0.03 88 1012.4
20260505081015 6 114 3.2 9.7 0.00 0.30 0.03 89 1012.6
20260505080516 6 152 4.8 9.7 0.00 0.30 0.03 89 1012.5
20260505080046 6 132 4.8 9.7 0.00 0.30 0.03 89 1012.7
20260505075516 6 116 4.8 8.0 0.00 0.30 0.03 89 1012.6
20260505075016 6 119 3.2 8.0 0.00 0.30 0.03 89 1012.7
20260505074535 6 127 3.2 9.7 0.00 0.30 0.03 90 1012.8
20260505074015 6 132 4.8 14.5 0.03 0.30 0.03 90 1012.9
20260505073514 6 139 6.4 14.5 0.03 0.30 0.03 90 1013.0
20260505073045 6 174 8.0 19.3 0.03 0.30 0.03 90 1013.1
20260505072512 6 156 14.5 19.3 0.03 0.30 0.03 90 1013.2
20260505072016 6 150 9.7 17.7 0.03 0.30 0.03 91 1013.1
20260505071534 6 146 4.8 12.9 0.03 0.30 0.03 91 1013.4
20260505071017 6 135 8.0 16.1 0.03 0.30 0.03 91 1013.3
20260505070517 6 183 9.7 16.1 0.03 0.30 0.03 91 1013.4
20260505070034 6 167 11.3 16.1 0.03 0.30 0.03 91 1013.5
20260505065515 6 159 11.3 16.1 0.03 0.30 0.03 91 1013.5
20260505065013 6 158 9.7 14.5 0.03 0.30 0.03 91 1013.6
20260505064531 6 198 6.4 11.3 0.03 0.30 0.03 91 1013.9
20260505064016 6 206 6.4 11.3 0.00 0.28 0.00 91 1013.9
20260505063520 6 185 1.6 4.8 0.00 0.28 0.00 91 1013.8
20260505063036 6 185 0.0 3.2 0.00 0.28 0.00 91 1013.8
20260505062515 6 0 0.0 3.2 0.00 0.28 0.00 91 1013.8
20260505062014 6 185 0.0 4.8 0.00 0.28 0.00 91 1013.8
20260505061535 6 0 0.0 6.4 0.03 0.28 0.00 91 1013.8
20260505061015 6 185 3.2 6.4 0.03 0.28 0.00 91 1013.7
20260505060514 6 185 1.6 6.4 0.05 0.28 0.00 91 1013.8
20260505060036 6 185 1.6 6.4 0.05 0.28 0.00 91 1013.7
20260505055518 6 0 1.6 6.4 0.08 0.28 0.28 91 1013.8
20260505055017 6 185 3.2 6.4 0.08 0.28 0.28 91 1013.7
20260505054535 6 207 3.2 6.4 0.10 0.28 0.28 91 1013.9
20260505054017 6 212 3.2 6.4 0.13 0.28 0.28 91 1013.7
20260505053513 6 186 1.6 6.4 0.13 0.28 0.28 91 1013.6
20260505053034 6 121 3.2 8.0 0.13 0.28 0.28 91 1013.5
20260505052520 6 125 3.2 8.0 0.15 0.28 0.28 91 1013.6
20260505052018 6 124 3.2 6.4 0.15 0.28 0.28 91 1013.6
20260505051536 6 43 0.0 6.4 0.13 0.25 0.25 90 1013.9
20260505051015 6 351 3.2 9.7 0.13 0.25 0.25 90 1014.2
20260505050516 6 342 4.8 14.5 0.10 0.23 0.23 90 1014.4
20260505050109 6 345 6.4 14.5 0.10 0.23 0.23 90 1014.4
20260505041548 7 356 1.6 6.4 0.13 0.13 0.13 87 1014.2
20260505041014 7 356 3.2 6.4 0.13 0.13 0.13 87 1014.1
20260505040516 7 306 1.6 4.8 0.13 0.13 0.13 86 1014.0
20260505040031 7 0 0.0 3.2 0.13 0.13 0.13 85 1014.0
20260505035515 7 0 0.0 3.2 0.13 0.13 0.13 85 1013.8
20260505035014 7 254 1.6 3.2 0.10 0.10 0.10 84 1013.8
20260505034532 7 254 0.0 3.2 0.10 0.10 0.10 84 1013.9
20260505034015 7 0 0.0 9.7 0.08 0.08 0.08 84 1013.8
20260505033513 7 254 1.6 9.7 0.05 0.05 0.05 83 1014.0
20260505033037 7 274 4.8 9.7 0.05 0.05 0.05 82 1014.0
20260505032516 8 269 3.2 8.0 0.03 0.03 0.03 81 1013.8
20260505032014 8 240 1.6 6.4 0.03 0.03 0.03 80 1013.8
20260505031540 8 243 3.2 6.4 0.00 0.00 0.00 79 1013.7
20260505031013 8 205 1.6 6.4 0.00 0.00 0.00 78 1013.8
20260505030513 8 205 3.2 6.4 0.00 0.00 0.00 77 1013.6
20260505030037 8 214 3.2 6.4 0.00 0.00 0.00 77 1013.5
20260505025517 8 224 3.2 6.4 0.00 0.00 0.00 77 1013.4
20260505025018 8 172 1.6 6.4 0.00 0.00 0.00 76 1013.4
20260505024531 8 172 3.2 6.4 0.00 0.00 0.00 76 1013.2
20260505024015 8 238 1.6 8.0 0.00 0.00 0.00 75 1013.1
20260505023516 8 238 3.2 8.0 0.00 0.00 0.00 74 1013.1
20260505023039 8 231 3.2 8.0 0.00 0.00 0.00 73 1013.0
20260505022515 8 269 1.6 6.4 0.00 0.00 0.00 71 1012.9
20260505022016 8 0 0.0 6.4 0.00 0.00 0.00 70 1012.8
20260505021534 9 269 3.2 6.4 0.00 0.00 0.00 68 1012.9
20260505021013 9 274 1.6 4.8 0.00 0.00 0.00 69 1012.8
20260505020515 9 311 0.0 4.8 0.00 0.00 0.00 67 1012.8
20260505020036 9 311 1.6 4.8 0.00 0.00 0.00 66 1012.9
20260505015517 9 20 0.0 4.8 0.00 0.00 0.00 68 1013.0
20260505015014 9 23 1.6 4.8 0.00 0.00 0.00 66 1012.9
20260505014549 9 20 1.6 4.8 0.00 0.00 0.00 65 1012.9
20260505014013 10 0 0.0 8.0 0.00 0.00 0.00 65 1012.5
20260505013513 10 0 0.0 11.3 0.00 0.00 0.00 66 1012.3
20260505013036 10 357 3.2 12.9 0.00 0.00 0.00 65 1012.6
20260505012515 10 347 6.4 12.9 0.00 0.00 0.00 64 1012.8
20260505012013 10 354 6.4 12.9 0.00 0.00 0.00 62 1012.7
20260505011533 10 28 3.2 14.5 0.00 0.00 0.00 59 1012.7
20260505011019 10 11 6.4 20.9 0.00 0.00 0.00 58 1012.8
20260505010515 11 351 9.7 20.9 0.00 0.00 0.00 58 1012.6
20260505010036 11 357 6.4 32.2 0.00 0.00 0.00 57 1012.7
20260505005514 11 352 19.3 32.2 0.00 0.00 0.00 54 1012.6
20260505005014 12 347 16.1 25.7 0.00 0.00 0.00 50 1012.4
20260505004536 12 355 14.5 27.4 0.00 0.00 0.00 47 1012.3
20260505004013 12 353 14.5 27.4 0.00 0.00 0.00 45 1012.2
20260505003514 12 12 8.0 25.7 0.00 0.00 0.00 44 1012.2
20260505003033 12 269 3.2 11.3 0.00 0.00 0.00 42 1012.2
20260505002516 12 347 3.2 11.3 0.00 0.00 0.00 42 1012.2
20260505002014 12 229 4.8 9.7 0.00 0.00 0.00 42 1012.1
20260505001534 12 103 3.2 20.9 0.00 0.00 0.00 42 1012.0
20260505001013 12 98 8.0 20.9 0.00 0.00 0.00 42 1011.9
20260505000516 13 133 11.3 20.9 0.00 0.00 0.00 41 1011.8
20260505000035 13 127 9.7 27.4 0.00 0.00 0.00 39 1011.7
20260504235515 13 86 11.3 27.4 0.00 0.00 0.00 39 1011.8
20260504235015 13 27 14.5 27.4 0.00 0.00 0.00 38 1011.6
20260504234538 13 6 11.3 30.6 0.00 0.00 0.00 37 1011.6
20260504234015 13 90 9.7 30.6 0.00 0.00 0.00 37 1011.6
20260504233515 14 37 16.1 29.0 0.00 0.00 0.00 33 1011.5
20260504233034 15 38 11.3 24.1 0.00 0.00 0.00 33 1011.5
20260504232516 15 2 16.1 24.1 0.00 0.00 0.00 33 1011.5
20260504232016 15 49 14.5 30.6 0.00 0.00 0.00 32 1011.3
20260504231536 15 51 16.1 33.8 0.00 0.00 0.00 33 1011.5
20260504231015 15 7 16.1 33.8 0.00 0.00 0.00 31 1011.1
20260504230515 15 45 20.9 35.4 0.00 0.00 0.00 31 1011.1
20260504230034 15 41 17.7 35.4 0.00 0.00 0.00 31 1010.5
20260504225516 16 8 19.3 35.4 0.00 0.00 0.00 30 1010.4
20260504225013 17 14 16.1 30.6 0.00 0.00 0.00 27 1010.3
20260504224531 17 352 4.8 16.1 0.00 0.00 0.00 26 1010.1
20260504224016 17 8 11.3 16.1 0.00 0.00 0.00 26 1010.1
20260504223514 17 14 6.4 12.9 0.00 0.00 0.00 26 1009.9
20260504223042 17 59 6.4 11.3 0.00 0.00 0.00 26 1009.9
20260504222518 17 59 8.0 11.3 0.00 0.00 0.00 26 1010.0
20260504222019 17 349 3.2 16.1 0.00 0.00 0.00 26 1010.0
20260504221536 17 74 9.7 17.7 0.00 0.00 0.00 25 1010.0
20260504221015 17 4 9.7 17.7 0.00 0.00 0.00 26 1010.0
20260504220515 17 1 9.7 17.7 0.00 0.00 0.00 25 1010.0
20260504220031 17 360 6.4 16.1 0.00 0.00 0.00 27 1010.0
20260504215514 17 352 9.7 16.1 0.00 0.00 0.00 26 1010.1
20260504215017 17 17 6.4 33.8 0.00 0.00 0.00 28 1010.1
20260504214534 17 89 3.2 33.8 0.00 0.00 0.00 26 1010.2
20260504214014 17 296 16.1 33.8 0.00 0.00 0.00 25 1010.3
20260504213514 17 1 9.7 19.3 0.00 0.00 0.00 26 1010.3
20260504213052 17 343 4.8 19.3 0.00 0.00 0.00 26 1010.5
20260504212520 17 8 9.7 25.7 0.00 0.00 0.00 26 1010.5
20260504212015 17 2 16.1 25.7 0.00 0.00 0.00 26 1010.4
20260504211537 17 39 9.7 25.7 0.00 0.00 0.00 26 1010.5
20260504211016 17 23 14.5 25.7 0.00 0.00 0.00 26 1010.4
20260504210513 17 351 19.3 29.0 0.00 0.00 0.00 26 1010.5
20260504210034 17 21 16.1 29.0 0.00 0.00 0.00 27 1010.6
20260504205513 17 10 16.1 24.1 0.00 0.00 0.00 26 1010.7
20260504205014 17 1 11.3 35.4 0.00 0.00 0.00 26 1010.5
20260504204534 17 34 19.3 38.6 0.00 0.00 0.00 26 1010.7
20260504204013 17 3 20.9 38.6 0.00 0.00 0.00 26 1010.6
20260504203514 18 4 20.9 38.6 0.00 0.00 0.00 25 1010.5
20260504203035 18 359 17.7 32.2 0.00 0.00 0.00 24 1010.4
20260504202516 18 360 22.5 33.8 0.00 0.00 0.00 24 1010.6
20260504202014 18 6 24.1 35.4 0.00 0.00 0.00 25 1010.6
20260504201534 18 21 20.9 35.4 0.00 0.00 0.00 25 1010.8
20260504201018 18 51 17.7 33.8 0.00 0.00 0.00 25 1010.8
20260504200516 18 8 20.9 38.6 0.00 0.00 0.00 25 1010.9
20260504200034 18 1 16.1 38.6 0.00 0.00 0.00 26 1010.8
20260504195514 18 356 22.5 38.6 0.00 0.00 0.00 25 1010.8